Regional Weather Roundup
Issued by NWS

Home | Current Version | Previous Version | Text Only | Print | Product List | Glossary On
Versions: 1 2 3 4 5 6 7 8 9 10 11 12 13 14 15 16 17 18 19 20 21 22 23 24 25 26 27 28 29 30 31 32 33 34 35 36 37 38 39 40 41 42 43 44 45 46 47 48 49 50
000
ASHW40 PHFO 051113
RWRHI

WEATHER ROUNDUP FOR HAWAII
NATIONAL WEATHER SERVICE HONOLULU HI
100 AM HST THU MAY 05 2016

THIS IS AN AUTOMATED REPORT THAT HAS NOT BEEN QUALITY CONTROLLED.

NOTE..."FAIR" INDICATES FEW OR NO CLOUDS BELOW 12,000 FEET WITH NO
SIGNIFICANT WEATHER AND/OR OBSTRUCTIONS TO VISIBILITY.

* - THESE SITES REPORT LIMITED FIELDS

HIZ001>004-051200-
KAUAI-NIIHAU-

CITY           SKY/WX    TMP DP  RH WIND       PRES   REMARKS
LIHUE APT      CLOUDY    76  68  76 E15       30.08F
PORT ALLEN*      N/A     75 N/A N/A NE14        N/A
POIPU*           N/A     75 N/A N/A NE7G15      N/A
PRINCEVILLE*     N/A     72 N/A N/A S6          N/A
KOKOLE POINT*  NOT AVBL
MOLOAA DAIRY*    N/A     73  68  83 SE9G15      N/A
WAIMEA HTS*    NOT AVBL
PUU OPAE*      NOT AVBL
PUU LUA*       NOT AVBL
MAKAHA RIDGE*  NOT AVBL
$$

HIZ005>011-051200-
OAHU-

CITY           SKY/WX    TMP DP  RH WIND       PRES   REMARKS
HONOLULU       PTCLDY    74  66  76 E8        30.06F
KALAELOA       CLEAR     70  66  87 NE5       30.07F
KANEOHE MCB    CLOUDY    76  68  76 E6        30.05F
WHEELER FIELD  FAIR      67  64  91 SW3       30.06F
BELLOWS*       NOT AVBL
KAHUKU*        NOT AVBL
WHEELER*       NOT AVBL
WAIANAE HARBOR NOT AVBL
DILLINGHAM*      N/A     70  63  78 MISG        N/A
KAHUKU TRN*      N/A     72  64  78 CALM        N/A
KAWAILOA*        N/A     68  61  77 SE3G9       N/A
KII*             N/A     75  68  78 E15         N/A
MAKUA RANGE*     N/A     77  72  83 E6          N/A
OAHU FOREST NW NOT AVBL
SCHOFIELD BRK*   N/A     75  72  88 MISG        N/A
SCHOFIELD S*   NOT AVBL
WAIANAE VLY*   NOT AVBL
KUAOKALA*      NOT AVBL
HONOULIUULI*   NOT AVBL
MOKUOLOE IS*   NOT AVBL
PALEHUA*       NOT AVBL
WAIAWA PHB*    NOT AVBL
$$

HIZ012>013-051200-
MOLOKAI-

CITY           SKY/WX    TMP DP  RH WIND       PRES   REMARKS
MOLOKAI AIRPT  CLEAR     72  63  73 NE6       30.07F
KALAUPAPA      NOT AVBL
MAKAPULAPAI*   NOT AVBL
MOLOKAI 1*     NOT AVBL
PUU ALII*      NOT AVBL
$$

HIZ016-051200-
KAHOOLAWE-

CITY           SKY/WX    TMP DP  RH WIND       PRES   REMARKS
KAHOOLAWE*     NOT AVBL
HAKIOAWA*      NOT AVBL
HONOKANAIA*      N/A     76  65  68 NE10G23   30.01S
KANELOA*         N/A     72  64  78 E14G23    30.14S
KEALIALALO*    NOT AVBL
LUA MAKIKA*    NOT AVBL
$$

HIZ014>015-051200-
LANAI-

CITY           SKY/WX    TMP DP  RH WIND       PRES   REMARKS
LANAI CITY     MOCLDY    65  62  90 E6        30.11F
LANAI 1*       NOT AVBL
$$

HIZ017>028-051200-
MAUI-

CITY           SKY/WX    TMP DP  RH WIND       PRES   REMARKS
KAHULUI        PTCLDY    73  66  78 NE9       30.06F
KAPALUA-W MAUI NOT AVBL
HANA AIRPORT   NOT AVBL
HANA*            N/A     70 N/A N/A S3          N/A
HALEAKALA SUMM   N/A     46  -6  11 SE20        N/A
MAALAEA BAY*   NOT AVBL
HALEAKALA*     NOT AVBL
KAUPO GAP*     NOT AVBL
KULA 1*          N/A     48  39  71 E3          N/A
$$

HIZ023>026-051200-
BIG ISLAND OF HAWAII COAST AND LOWER SLOPES-

CITY           SKY/WX    TMP DP  RH WIND       PRES   REMARKS
KAILUA KONA    CLEAR     75  66  73 E7        30.02F
HILO           PTCLDY    69  62  78 SW6       30.08F
HONOKAA*         N/A     66 N/A N/A VRB1        N/A
KAWAIHAE MWT*    N/A     77 N/A N/A NE7         N/A
KAWAIHAE*      NOT AVBL
SOUTH POINT*     N/A     66 N/A N/A NW9         N/A
UPOLU AIRPORT*   N/A    N/A N/A N/A E13         N/A
KAMUELA*       SUNNY     61  59  94 NE18      30.13F
HAKALAU*         N/A     43  39  87 SW5         N/A
KALOKO-HONOKO* NOT AVBL
PALI 2*          N/A     63  55  77 S8G14       N/A
KEALAKOMO*       N/A     75  63  64 NE9G20      N/A
KAUPULEHU*     NOT AVBL
KAPAPALA*        N/A     59  55  86 N5          N/A
LOWER KAHUKU*  NOT AVBL
PUHE CS*       NOT AVBL
PUHO CS*       NOT AVBL
PTA KEAMUKU*     N/A     55  48  76 CALM        N/A
WAIKOLOA*      NOT AVBL
$$

HIZ027>028-051200-
BIG ISLAND OF HAWAII INTERIOR AND SUMMMITS-

CITY           SKY/WX    TMP DP  RH WIND       PRES   REMARKS
BRADSHAW FIELD CLOUDY    44  40  84 SE3       30.33F
MK VISITOR CEN   N/A     52  -9   7 E12         N/A
MAUNA KEA*       N/A     36   7  30 NE10        N/A  WCI  28
MAUNA LOA*     NOT AVBL
MAUNA LOA 1*   NOT AVBL
PTA KIPUKA*      N/A     48  45  87 E3          N/A
PTA RANGE 17*    N/A     64  54  68 SE9G15      N/A
PTA WEST*        N/A     54  48  82 SE10        N/A
NENE CABIN*    NOT AVBL
AHUMOA*        NOT AVBL
PTA PORTABLE*  NOT AVBL
PUU MALI*        N/A     54  32  43 SE3         N/A
$$

HIC003-051200-
NORTHWEST ISLANDS-

CITY           SKY/WX    TMP DP  RH WIND       PRES   REMARKS
MIDWAY ISLAND  CLOUDY    64  52  63 N13       30.24F
MIDWAY NOS*    NOT AVBL
FRENCH FRIGATE NOT AVBL
$$

PHZ110>124-180-051200-
BUOY REPORTS

STATION/POSITION TIME  TEMP    WIND        PRES    WAVE   SWELL
                       AIR SEA DIR/SP/G            HT/PER HT/DIR
                 (UTC) (F)     (DEG/KT/KT) (MB)    (FT/S) (FT/D)
BUOY 51001       1000   78 79   70/  8/ 10 1018.0S
BUOY 51101       1050   76 76  130/  8/ 10 1018.1F   6/15   7/300
BUOY 51100       NOT AVBL
BUOY 51002       1050   77 78   90/ 17/ 19 1016.4F   7/ 8   5/100
BUOY 51003       1050   77 78   70/ 10/ 12 1017.2F   7/16   7/320
BUOY 51004       1050   78 79   80/ 16/ 19 1016.9F   8/ 9   5/ 40
BARBERS PT BUOY  NOT AVBL
WAIMEA BAY BUOY  1004      78                N/A     5/15   3/310
KAILUA BAY BUOY  1011      78                N/A     6/ 8   2
LANAI BUOY       1015      79                N/A     3/13   2/210
BARBERS PT 2     1103      78                N/A     4/15   2/300
PAUWELA MAUI     1009      77                N/A     6/ 8   2/310
HILO             1012      78                N/A     7/ 8   2/340
KANEOHE BAY BUOY 1006      77                N/A     6/ 8   2/ 20
HANALEI KAUAI    NOT AVBL
KAHULUI HARBOR   1000   75 77  340/  9/ 13 1018.5F
HONOLULU HARBOR  1000   76 78   60/  4/  6 1019.0F
KILO NALU        NOT AVBL
HILO HARBOR      1000   70 77  180/  4/  5 1018.7F
MOKUOLOE         1000   75 78  100/  7/ 11 1018.8F
NAWILIWILI       1000   76 80   90/ 13/ 15 1018.6F
WHOTS BUOY       NOT AVBL
BUOY 51028       NOT AVBL
$$

......................KEY........................................
  SKY/WX - SKY CONDITIONS/PRESENT WEATHER
  TMP    - TEMPERATURE IN FAHRENHEIT
  DWPT   - DEWPOINT IN FAHRENHEIT
  RH     - RELATIVE HUMIDITY IN PERCENT
  WIND   - DIRECTION AND SPEED /MPH FOR ISLANDS...KTS FOR BUOYS/
  PRES   - MEAN SEA LEVEL PRESSURE IN INCHES OF HG
  VSB    - VISIBILITY IN MILES
  HX     - HEAT INDEX
  WCI    - WIND CHILL INDEX
  VRB    - VARIABLE WIND DIRECTION
  N/A    - NOT AVAILABLE




USA.gov is the U.S. government's official web portal to all federal, state and local government web resources and services.